Skip Page Navigation
NASA JPL Caltech
NASA Logo - Jet Propulsion Laboratory + View the NASA Portal
+ Center for Near-Earth Object Studies
JPL Home Earth Solar System Stars & Galaxies Technology
JPL Solar System Dynamics
BODIES ORBITS EPHEMERIDES TOOLS PHYSICAL DATA DISCOVERY FAQ SITE MAP
IMPORTANT: The SSD Announcement email list is now available. Major changes are coming in the near future, including possible hostname and/or URL changes. To be notified of such changes, subscribe to this email list.

Please visit this page for more details.


JPL Small-Body Database Browser
Search: [ help ]  
437997 (2003 UY118)
Classification: Main-belt Asteroid          SPK-ID: 2437997
Ephemeris | Orbit Diagram | Orbital Elements | Mission Design | Physical Parameters | Discovery Circumstances ]

[ show orbit diagram ]
Orbital Elements at Epoch 2458600.5 (2019-Apr-27.0) TDB
Reference: JPL 12 (heliocentric ecliptic J2000)
 Element Value Uncertainty (1-sigma)   Units 
e .1357122760638518 9.5433e-08  
a 2.685760497600984 3.1338e-08 au
q 2.321269827509171 2.622e-07 au
i 13.60998719238882 9.2544e-06 deg
node 208.2854042464724 2.7603e-05 deg
peri 179.8242812704847 3.745e-05 deg
M 184.7420039015934 2.688e-05 deg
tp 2459383.162796994831
(2021-Jun-17.66279699)
0.00012771 TDB
period 1607.679039990465
4.40
2.8138e-05
7.704e-08
d
yr
n .2239252929503486 3.9192e-09 deg/d
Q 3.050251167692797 3.5591e-08 au
  Orbit Determination Parameters
   # obs. used (total)      100  
   data-arc span      5722 days (15.67 yr)  
   first obs. used      2003-10-03  
   last obs. used      2019-06-03  
   planetary ephem.      DE431  
   SB-pert. ephem.      SB431-N16  
   condition code      0  
   norm. resid. RMS      .70817  
   source      ORB  
   producer      Otto Matic  
   solution date      2019-Sep-24 07:38:08  

Additional Information
 Earth MOID = 1.32544 au 
 Jupiter MOID = 2.39181 au 
 T_jup = 3.321 
[ show covariance matrix ]

Ephemeris | Orbit Diagram | Orbital Elements | Mission Design | Physical Parameters | Discovery Circumstances ]

Physical Parameter Table
Parameter Symbol Value Units Sigma Reference Notes
absolute magnitude H 17.0   n/a MPO434614  

437997 (2003 UY118)          Discovered 2003-Oct-03 by Spacewatch at Kitt Peak
Reference: Last Updated: 2015-07-06

Alternate Designations
 2003 UY118 = 2012 UV132 
Ephemeris | Orbit Diagram | Orbital Elements | Mission Design | Physical Parameters | Discovery Circumstances ]
ABOUT SSD CREDITS/AWARDS PRIVACY/COPYRIGHT GLOSSARY LINKS
FirstGov 2019-Dec-12 14:08 UT
(server date/time)  
NASA Home Page
Site Manager:   Ryan S. Park
Webmaster  Alan B. Chamberlin